Home   Weather   Nagoya   Past weeks
Flag for Japan

Past Weather in Nagoya, Japan — Yesterday and Last 2 Weeks

Now
84 °F

Passing clouds.


Feels Like: 90 °F
Forecast: 92 / 75 °F
Wind: 12 mph from Northwest

Location: Nagoya Airport

Current Time: Sep 16, 2019 at 11:38:04 am

Latest Report: Sep 16, 2019 at 10:30 am


Visibility: N/A

Pressure: 29.53 "Hg

Humidity: 66%

Dew Point: 72 °F

Location of NagoyaLocation

Past Weather in Nagoya — Graph

°F

Nagoya Temperature Yesterday

Maximum temperature yesterday: 84 °F (at 1:00 pm)
Minimum temperature yesterday: 72 °F (at 5:30 am)
Average temperature yesterday: 79 °F

High & Low Weather Summary for the Past Weeks

 TemperatureHumidityPressure
High93 °F (Sep 9, 3:00 pm)94% (Sep 2, 12:00 am)30.07 "Hg (Sep 2, 12:00 am)
Low72 °F (Sep 14, 2:00 am)40% (Sep 12, 11:30 am)29.53 "Hg (Sep 16, 10:00 am)
Average81 °F76%29.91 "Hg
* Reported Sep 1 10:00 am — Sep 16 10:00 am, Nagoya. Weather by CustomWeather, © 2019

Note: Actual official high and low records may vary slightly from our data, if they occured in-between our weather recording intervals... More about our weather records

Advertising

Nagoya Weather History for the Previous 24 Hours

Scroll right to see more
 ConditionsComfort  
Time TempWeatherWind HumidityBarometerVisibility
10:00 am
Mon, Sep 16
84 °FPassing clouds.10 mph62%29.53 "HgN/A
9:30 am84 °FPassing clouds.8 mph62%29.56 "HgN/A
9:00 am82 °FScattered clouds.9 mph66%29.56 "HgN/A
8:30 am82 °FScattered clouds.10 mph66%29.56 "HgN/A
8:00 am81 °FScattered clouds.13 mph66%29.56 "HgN/A
7:30 am79 °FScattered clouds.14 mph70%29.59 "HgN/A
7:00 am79 °FScattered clouds.13 mph74%29.59 "HgN/A
6:30 am77 °FScattered clouds.14 mph74%29.59 "HgN/A
6:00 am77 °FPartly sunny.16 mph74%29.59 "HgN/A
5:30 am77 °FPassing clouds.16 mph79%29.59 "HgN/A
5:00 am77 °FPassing clouds.16 mph79%29.59 "HgN/A
4:30 am79 °FPassing clouds.15 mph70%29.59 "HgN/A
4:00 am79 °FPassing clouds.13 mph74%29.59 "HgN/A
3:30 am77 °FPassing clouds.15 mph79%29.59 "HgN/A
2:30 am79 °FPassing clouds.16 mph74%29.59 "HgN/A
2:00 am79 °FPassing clouds.13 mph79%29.62 "HgN/A
1:30 am79 °FPassing clouds.13 mph79%29.62 "HgN/A
1:00 am79 °FPassing clouds.10 mph74%29.62 "HgN/A
12:30 am77 °FPassing clouds.9 mph79%29.62 "HgN/A
12:00 am79 °FPassing clouds.9 mph79%29.62 "HgN/A
11:30 pm
Sun, Sep 15
79 °FPassing clouds.10 mph79%29.62 "HgN/A
11:00 pm79 °FPassing clouds.10 mph79%29.65 "HgN/A
10:30 pm81 °FPassing clouds.10 mph79%29.65 "HgN/A
10:00 pm81 °FPassing clouds.13 mph79%29.65 "HgN/A
9:30 pm79 °FPassing clouds.9 mph79%29.68 "HgN/A
9:00 pm79 °FPassing clouds.9 mph74%29.68 "HgN/A
8:30 pm81 °FPassing clouds.2 mph79%29.68 "HgN/A
8:00 pm81 °FPassing clouds.5 mph79%29.68 "HgN/A
7:30 pm81 °FPassing clouds.5 mph74%29.68 "HgN/A
7:00 pm81 °FPassing clouds.5 mph74%29.65 "HgN/A
6:30 pm81 °FPassing clouds.6 mph74%29.65 "HgN/A
6:00 pm81 °FPassing clouds.7 mph74%29.65 "HgN/A
5:30 pm82 °FPassing clouds.6 mph74%29.65 "HgN/A
5:00 pm82 °FPassing clouds.6 mph70%29.65 "HgN/A
4:30 pm84 °FPassing clouds.7 mph66%29.65 "HgN/A
4:00 pm84 °FPassing clouds.9 mph62%29.65 "HgN/A
3:30 pm84 °FPassing clouds.9 mph62%29.65 "HgN/A
3:00 pm84 °FPassing clouds.9 mph62%29.68 "HgN/A
2:30 pm84 °FPassing clouds.10 mph58%29.68 "HgN/A
2:00 pm82 °FPassing clouds.12 mph62%29.68 "HgN/A
1:30 pm82 °FPassing clouds.10 mph66%29.71 "HgN/A
1:00 pm84 °FPassing clouds.7 mph62%29.71 "HgN/A
12:30 pm82 °FPassing clouds.9 mph66%29.71 "HgN/A
12:00 pm82 °FPassing clouds.8 mph66%29.74 "HgN/A
11:30 am82 °FPassing clouds.10 mph66%29.74 "HgN/A
11:00 am81 °FPassing clouds.9 mph70%29.77 "HgN/A
Weather by CustomWeather, © 2019

See weather overview